Location: Unspecified
(0.0000°N, 0.0000°E)
Time: 06:32:14
(UTC+00:00)

N. Korean satellite - Pass Details

Date: 15 January 2019
Orbit: 455 x 510 km, 97.2° (Epoch: 14 June)

Event Time Altitude Azimuth Distance (km) Brightness Sun altitude
Rises 05:39:27 0° 18° (NNE) 2,579 10.2 -6.9°
Reaches altitude 10° 05:41:34 10° 22° (NNE) 1,691 9.3 -6.5°
Maximum altitude 05:45:08 56° 101° (E) 590 7.5 -5.6°
Drops below altitude 10° 05:48:40 10° 180° (S) 1,668 9.6 -4.8°
Sets 05:50:44 0° 184° (S) 2,540 10.5 -4.3°
